Hourly Data Report for October 06, 2012

All times are specified in Local Standard Time (LST). Add 1 hour to adjust for Daylight Saving Time where and when it is observed.

ST LEONARD CS
NEW BRUNSWICK

47°09'28.050" N
67°49'55.014" W
245.00 m
810I001
71019
WIY

Download Data

Hourly Data (October 2012)
Hourly Data Report for October 6, 2012
Temp Definition
°C
Dew Point Temp Definition
°C
Rel Hum Definition
%
Wind Dir Definition
10's deg

Wind Spd Definition
km/h
Visibility Definition
km
Stn Press Definition
kPa
Hmdx Definition


Wind Chill Definition


Weather Definition


TIME
00:00 13.8 13.1 96 18 11   98.03     LegendNANA
01:00 13.9 13.3 96 18 7   98.02     LegendNANA
02:00 14.0 13.4 96 17 7   97.99     LegendNANA
03:00 14.1 13.5 96 18 9   97.97     LegendNANA
04:00 14.1 13.5 96 18 13   97.95     LegendNANA
05:00 13.8 13.1 96 19 7   97.94     LegendNANA
06:00 13.9 13.3 96 18 9   97.91     LegendNANA
07:00 13.7 13.2 97 17 11   97.88     LegendNANA
08:00 13.8 13.1 96 18 13   97.86     LegendNANA
09:00 13.5 12.8 96 17 13   97.83     LegendNANA
10:00 13.1 12.5 96 15 13   97.75     LegendNANA
11:00 13.3 12.7 96 15 17   97.63     LegendNANA
12:00 14.0 13.3 96 17 17   97.56     LegendNANA
13:00 15.1 14.0 93 17 20   97.44     LegendNANA
14:00 16.3 14.6 90 17 19   97.31     LegendNANA
15:00 17.1 15.0 87 18 15   97.28     LegendNANA
16:00 12.4 11.7 95 28 7   97.32     LegendNANA
17:00 12.8 12.0 95 27 7   97.35     LegendNANA
18:00 11.0 10.2 95 29 9   97.45     LegendNANA
19:00 10.6 9.7 94 29 9   97.49     LegendNANA
20:00 10.1 9.0 93 25 7   97.63     LegendNANA
21:00 9.3 8.2 93 24 9   97.65     LegendNANA
22:00 8.5 7.4 93 28 4   97.71     LegendNANA
23:00 7.4 6.4 93 28 6   97.75     LegendNANA

Notes on Data Quality.

Legend

  • E = Estimated
  • M = Missing
  • NA = Not Available
  • ‡ = Partner data that is not subject to review by the National Climate Archives
Date modified: